Flag for Vietnam Weather past 2 weeks in Hanoi, Vietnam

Now
77 °F

Light rain. Partly cloudy.


Feels Like: 78 °F
Forecast: 76 / 86 °F
Wind: 8 mph from Northeast

Location: Ha Noi Airport

Current Time: Sep 2, 2014 at 4:51:23 AM

Latest Report: Sep 2, 2014 at 4:30 AM


Visibility: 4 mi

Pressure: 29.77 "Hg

Humidity: 94%

Dew point: 75 °F

Location of HanoiLocation

Historic Weather in Hanoi — Graph

°F

Hanoi temperature yesterday

Maximum temperature yesterday: 84 °F (at 10:30 AM)
Minimum temperature yesterday: 77 °F (at 4:30 AM)
Average temperature yesterday: 81 °F

Past Weeks' High & Low Weather Summary

 TemperatureHumidityPressure
High93 °F (Aug 18, 11:00 AM)100% (Aug 19, 6:30 AM)29.92 "Hg (Aug 19, 6:30 AM)
Low75 °F (Aug 29, 1:30 PM)59% (Aug 18, 11:30 AM)29.62 "Hg (Aug 18, 3:30 PM)
Average82 °F87%29.77 "Hg
* Reported Aug 18 3:00 AM — Sep 2 3:30 AM, Hanoi, Weather by CustomWeather, © 2014

Note: Actual official high and low records may vary slightly from our data, if they occured in-between our weather recording intervals... More about our weather records

Advertising

Hanoi weather history for previous 24 hours

 ConditionsComfort  
Time TempWeatherWind HumidityBarometerVisibility
3:30 AM
Sep 2
77 °FPassing clouds.6 mph94%29.77 "HgN/A
3:00 AM77 °FPassing clouds.6 mph94%29.77 "HgN/A
2:30 AM77 °FPassing clouds.6 mph100%29.77 "HgN/A
2:00 AM77 °FPassing clouds.6 mph100%29.77 "HgN/A
1:30 AM77 °FPassing clouds.6 mph100%29.80 "HgN/A
1:00 AM77 °FPassing clouds.8 mph100%29.80 "HgN/A
12:30 AM77 °FLight rain. Partly cloudy.7 mph100%29.80 "HgN/A
12:00 AM77 °FLight rain. Partly cloudy.10 mph100%29.80 "HgN/A
11:30 PM
Sep 1
77 °FLight rain. Partly cloudy.7 mph100%29.80 "Hg3 mi
11:00 PM77 °FThunderstorms. Partly cloudy.8 mph100%29.83 "Hg3 mi
10:30 PM77 °FThunderstorms. Partly cloudy.15 mph100%29.80 "Hg1 mi
10:00 PM79 °FThundershowers. Partly cloudy.3 mph100%29.80 "Hg4 mi
9:30 PM79 °FPartly cloudy.1 mph100%29.80 "HgN/A
9:00 PM79 °FPartly cloudy.3 mph100%29.77 "HgN/A
8:30 PM79 °FLight rain. Partly cloudy.5 mph94%29.77 "HgN/A
8:00 PM81 °FPartly cloudy.5 mph94%29.77 "HgN/A
7:30 PM81 °FClear.1 mph89%29.74 "Hg10 mi
7:00 PM81 °FPartly cloudy.3 mph89%29.74 "HgN/A
6:30 PM81 °FPassing clouds.5 mph89%29.74 "HgN/A
6:00 PM82 °FPartly sunny.2 mph84%29.71 "HgN/A
5:30 PM82 °FScattered clouds.3 mph79%29.71 "HgN/A
5:00 PM84 °FScattered clouds.6 mph74%29.71 "HgN/A
4:30 PM84 °FScattered clouds.5 mph79%29.71 "HgN/A
4:00 PM84 °FScattered clouds.7 mph79%29.71 "HgN/A
3:30 PM84 °FBroken clouds.5 mph84%29.71 "HgN/A
3:00 PM82 °FBroken clouds.2 mph89%29.74 "HgN/A
2:30 PM81 °FBroken clouds.12 mph94%29.74 "HgN/A
2:00 PM82 °FBroken clouds.5 mphN/AN/AN/A
1:30 PM81 °FRain. Broken clouds.8 mph89%29.74 "Hg6 mi
1:00 PM84 °FRain. Broken clouds.10 mph74%29.77 "Hg6 mi
12:30 PM84 °FBroken clouds.10 mph74%29.77 "HgN/A
12:00 PM84 °FBroken clouds.10 mph79%29.77 "HgN/A
11:30 AM84 °FBroken clouds.8 mph79%29.80 "HgN/A
11:00 AM84 °FPartly sunny.7 mph79%29.80 "HgN/A
10:30 AM84 °FPartly sunny.8 mph79%29.80 "HgN/A
10:00 AM82 °FPartly sunny.6 mph84%29.80 "HgN/A
9:30 AM82 °FPartly sunny.3 mph84%29.80 "HgN/A
9:00 AM82 °FPartly sunny.7 mph84%29.80 "HgN/A
8:30 AM81 °FPartly sunny.6 mph89%29.80 "HgN/A
8:00 AM81 °FBroken clouds.3 mph89%29.80 "HgN/A
7:30 AM81 °FBroken clouds.1 mph89%29.77 "HgN/A
6:30 AM79 °FBroken clouds.7 mph94%29.74 "HgN/A
6:00 AM79 °FBroken clouds.2 mph94%29.74 "HgN/A
5:30 AM79 °FPartly cloudy.3 mph94%29.74 "HgN/A
5:00 AM79 °FPartly cloudy.6 mph94%29.74 "HgN/A
4:30 AM77 °FPassing clouds.3 mph94%29.74 "Hg6 mi
4:00 AM79 °FPassing clouds.6 mph94%29.71 "Hg6 mi
Weather by CustomWeather, © 2014

See weather overviewHow to use our weather pages